User: anonymous   Login
Location: Newark
(48.8833°N, 0.9236°W)
Time: 05:05:31
(UTC+00:00)
Language:

Tiros 1 despin weight - Orbit

View from above orbital plane
View from above orbital plane
View from above satellite
View from above satellite

Ground track
Ground track

The orbit data is extracted from the following two-line orbital elements,

1   115U 60002D   19320.14839260  .00000016  00000-0  29072-4 0  9994
2   115  48.1663 224.6785 0034552  23.6046 336.6444 14.83508129181158
Epoch (UTC): 16 November 2019 03:33:41
Eccentricity: 0.0034552
inclination: 48.1663°
perigee height: 594 km
apogee height: 642 km
right ascension of ascending node: 224.6785°
argument of perigee: 23.6046°
revolutions per day: 14.83508129
mean anomaly at epoch: 336.6444°
orbit number at epoch: 18115

The dashed part of the orbit path shows where the satellite is in the earth's shadow,  

DLR